[ hide orbit diagram ]
For accurate long-term ephemerides, please instead use our Horizons system.This orbit viewer was implemented using two-body methods, and hence should not be used for determining accurate long-term trajectories (over several years or decades) or planetary encounter circumstances.
Orbital Elements at Epoch 2459000.5 (2020-May-31.0) TDB
Reference: JPL 33 (heliocentric ecliptic J2000)
Element | Value | Uncertainty (1-sigma) | Units |
e | .04383181883300059 | 4.4485e-08 | |
a | 3.18470890951762 | 1.9564e-08 | au |
q | 3.045117325559801 | 1.4713e-07 | au |
i | 6.266135440664512 | 5.4806e-06 | deg |
node | 31.32032390940239 | 3.6247e-05 | deg |
peri | 113.4919345909331 | 6.9548e-05 | deg |
M | 295.4149579822929 | 5.8741e-05 | deg |
tp | 2459372.919563595795 (2021-Jun-07.41956360) | 0.00033921 | TDB |
period | 2075.883806930533 5.68 | 1.9128e-05 5.237e-08 | d yr |
n | .1734201108935415 | 1.598e-09 | deg/d |
Q | 3.32430049347544 | 2.0421e-08 | au |
|
| | Orbit Determination Parameters
Additional Information
|
[ show covariance matrix ]
Physical Parameter Table
Parameter |
Symbol |
Value |
Units |
Sigma |
Reference |
Notes |
absolute magnitude |
H |
13.1 |
|
n/a |
MPO416826 |
|
diameter |
diameter |
13.022 |
km |
0.134 |
urn:nasa:pds:neowise_diameters_albedos::2.0[mainbelt] (http://adsabs.harvard.edu/abs/2011ApJ...741...68M) |
|
rotation period |
rot_per |
26.6848 |
h |
n/a |
LCDB (Rev. 2020-October); Warner et al., 2009 |
Result based on less than full coverage, so that the period may be wrong by 30 percent or so. Published Reference List: [Pal, A.; Szakats, R.; Kiss, C.; Bodi, A.; et al. (2019) Ap. J. Supl. Ser. 247, id.26.] |
geometric albedo |
albedo |
0.059 |
|
0.007 |
urn:nasa:pds:neowise_diameters_albedos::2.0[mainbelt] (http://adsabs.harvard.edu/abs/2011ApJ...741...68M) |
|
|
10444 de Hevesy | Discovered 1973 Sept. 30 by C. J. van Houten and I. van Houten-Groeneveld on Palomar Schmidt plates taken by T. Gehrels. |
Hungarian-Swedish physicist George de Hevesy (1885-1966) was awarded the Nobel Prize for chemistry in 1943 for his work on the use of isotopes as tracers in the study of chemical processes. Working with Dirk Coster in Copenhagen in 1923, he discovered the element hafnium. The name was proposed by W. A. Fröger. |
NOTE: some special characters may not display properly (any characters within {} are an attempt to place the proper accent above a character) |
Reference: 20010705/MPCPages.arc | Last Updated: 2009-05-11 |
|
[ show close-approach data ]
|